owner,sensor,date,latitude,longitude,vertical_datum,sea_water_temperature,qcFlag 
NDBC,ioos:station:wmo:42039:1,2017-05-01T01:50:00Z,28.7390,-86.0060,0.0,23.6,2 
NDBC,ioos:station:wmo:42039:1,2017-05-01T02:50:00Z,28.7390,-86.0060,0.0,23.7,2 
NDBC,ioos:station:wmo:42039:1,2017-05-01T03:50:00Z,28.7390,-86.0060,0.0,23.7,2 
NDBC,ioos:station:wmo:42039:1,2017-05-01T04:50:00Z,28.7390,-86.0060,0.0,23.6,2 
NDBC,ioos:station:wmo:42039:1,2017-05-01T05:50:00Z,28.7390,-86.0060,0.0,23.6,2 
NDBC,ioos:station:wmo:42039:1,2017-05-01T06:50:00Z,28.7390,-86.0060,0.0,23.7,2 
NDBC,ioos:station:wmo:42039:1,2017-05-01T08:50:00Z,28.7390,-86.0060,0.0,23.7,2 
NDBC,ioos:station:wmo:42039:1,2017-05-01T09:50:00Z,28.7390,-86.0060,0.0,23.6,2 
NDBC,ioos:station:wmo:42039:1,2017-05-01T10:50:00Z,28.7390,-86.0060,0.0,23.7,2 
NDBC,ioos:station:wmo:42039:1,2017-05-01T11:50:00Z,28.7390,-86.0060,0.0,23.7,2 
NDBC,ioos:station:wmo:42039:1,2017-05-01T14:50:00Z,28.7390,-86.0060,0.0,23.7,2 
NDBC,ioos:station:wmo:42039:1,2017-05-01T15:50:00Z,28.7390,-86.0060,0.0,23.7,2 
NDBC,ioos:station:wmo:42039:1,2017-05-01T17:50:00Z,28.7390,-86.0060,0.0,23.9,2 
NDBC,ioos:station:wmo:42039:1,2017-05-01T18:50:00Z,28.7390,-86.0060,0.0,23.9,2 
NDBC,ioos:station:wmo:42039:1,2017-05-01T19:50:00Z,28.7390,-86.0060,0.0,24.0,2 
NDBC,ioos:station:wmo:42039:1,2017-05-01T20:50:00Z,28.7390,-86.0060,0.0,24.0,2 
NDBC,ioos:station:wmo:42039:1,2017-05-01T21:50:00Z,28.7390,-86.0060,0.0,24.0,2 
NDBC,ioos:station:wmo:42039:1,2017-05-01T22:50:00Z,28.7390,-86.0060,0.0,24.0,2 
NDBC,ioos:station:wmo:42039:1,2017-05-01T23:50:00Z,28.7390,-86.0060,0.0,24.0,2 
NDBC,ioos:station:wmo:42039:1,2017-05-02T01:50:00Z,28.7390,-86.0060,0.0,24.0,2 
NDBC,ioos:station:wmo:42039:1,2017-05-02T02:50:00Z,28.7390,-86.0060,0.0,24.0,2 
NDBC,ioos:station:wmo:42039:1,2017-05-02T03:50:00Z,28.7390,-86.0060,0.0,24.0,2 
NDBC,ioos:station:wmo:42039:1,2017-05-02T05:50:00Z,28.7390,-86.0060,0.0,23.9,2 
NDBC,ioos:station:wmo:42039:1,2017-05-02T06:50:00Z,28.7390,-86.0060,0.0,23.9,2 
NDBC,ioos:station:wmo:42039:1,2017-05-02T07:50:00Z,28.7390,-86.0060,0.0,23.9,2 
NDBC,ioos:station:wmo:42039:1,2017-05-02T08:50:00Z,28.7390,-86.0060,0.0,23.9,2 
NDBC,ioos:station:wmo:42039:1,2017-05-02T09:50:00Z,28.7390,-86.0060,0.0,23.8,2 
NDBC,ioos:station:wmo:42039:1,2017-05-02T10:50:00Z,28.7390,-86.0060,0.0,23.9,2 
NDBC,ioos:station:wmo:42039:1,2017-05-02T11:50:00Z,28.7390,-86.0060,0.0,24.0,2 
NDBC,ioos:station:wmo:42039:1,2017-05-02T13:50:00Z,28.7390,-86.0060,0.0,23.8,2 
NDBC,ioos:station:wmo:42039:1,2017-05-02T14:50:00Z,28.7390,-86.0060,0.0,23.7,2 
NDBC,ioos:station:wmo:42039:1,2017-05-02T15:50:00Z,28.7390,-86.0060,0.0,23.8,2 
NDBC,ioos:station:wmo:42039:1,2017-05-02T16:50:00Z,28.7390,-86.0060,0.0,23.9,2 
NDBC,ioos:station:wmo:42039:1,2017-05-02T17:50:00Z,28.7390,-86.0060,0.0,24.0,2 
NDBC,ioos:station:wmo:42039:1,2017-05-02T18:50:00Z,28.7390,-86.0060,0.0,24.2,2 
NDBC,ioos:station:wmo:42039:1,2017-05-02T19:50:00Z,28.7390,-86.0060,0.0,24.3,2 
NDBC,ioos:station:wmo:42039:1,2017-05-02T20:50:00Z,28.7390,-86.0060,0.0,24.4,2 
NDBC,ioos:station:wmo:42039:1,2017-05-02T21:50:00Z,28.7390,-86.0060,0.0,24.5,2 
NDBC,ioos:station:wmo:42039:1,2017-05-02T22:50:00Z,28.7390,-86.0060,0.0,24.4,2 
NDBC,ioos:station:wmo:42039:1,2017-05-02T23:50:00Z,28.7390,-86.0060,0.0,24.3,2 
NDBC,ioos:station:wmo:42039:1,2017-05-03T00:50:00Z,28.7390,-86.0060,0.0,24.2,2 
NDBC,ioos:station:wmo:42039:1,2017-05-03T01:50:00Z,28.7390,-86.0060,0.0,24.1,2 
NDBC,ioos:station:wmo:42039:1,2017-05-03T02:50:00Z,28.7390,-86.0060,0.0,24.1,2 
NDBC,ioos:station:wmo:42039:1,2017-05-03T03:50:00Z,28.7390,-86.0060,0.0,24.1,2 
NDBC,ioos:station:wmo:42039:1,2017-05-03T04:50:00Z,28.7390,-86.0060,0.0,24.1,2 
NDBC,ioos:station:wmo:42039:1,2017-05-03T05:50:00Z,28.7390,-86.0060,0.0,24.1,2 
NDBC,ioos:station:wmo:42039:1,2017-05-03T06:50:00Z,28.7390,-86.0060,0.0,24.1,2 
NDBC,ioos:station:wmo:42039:1,2017-05-03T07:50:00Z,28.7390,-86.0060,0.0,24.1,2 
NDBC,ioos:station:wmo:42039:1,2017-05-03T08:50:00Z,28.7390,-86.0060,0.0,24.1,2 
NDBC,ioos:station:wmo:42039:1,2017-05-03T09:50:00Z,28.7390,-86.0060,0.0,24.1,2 
NDBC,ioos:station:wmo:42039:1,2017-05-03T10:50:00Z,28.7390,-86.0060,0.0,24.0,2 
NDBC,ioos:station:wmo:42039:1,2017-05-03T11:50:00Z,28.7390,-86.0060,0.0,24.0,2 
NDBC,ioos:station:wmo:42039:1,2017-05-03T13:50:00Z,28.7390,-86.0060,0.0,23.8,2 
NDBC,ioos:station:wmo:42039:1,2017-05-03T14:50:00Z,28.7390,-86.0060,0.0,23.8,2 
NDBC,ioos:station:wmo:42039:1,2017-05-03T15:50:00Z,28.7390,-86.0060,0.0,23.9,2 
NDBC,ioos:station:wmo:42039:1,2017-05-03T16:50:00Z,28.7390,-86.0060,0.0,24.0,2 
NDBC,ioos:station:wmo:42039:1,2017-05-03T17:50:00Z,28.7390,-86.0060,0.0,24.2,2 
NDBC,ioos:station:wmo:42039:1,2017-05-03T18:50:00Z,28.7390,-86.0060,0.0,24.3,2 
NDBC,ioos:station:wmo:42039:1,2017-05-03T20:50:00Z,28.7390,-86.0060,0.0,24.3,2 
NDBC,ioos:station:wmo:42039:1,2017-05-04T00:50:00Z,28.7390,-86.0060,0.0,24.4,2 
NDBC,ioos:station:wmo:42039:1,2017-05-04T01:50:00Z,28.7390,-86.0060,0.0,24.3,2 
NDBC,ioos:station:wmo:42039:1,2017-05-04T02:50:00Z,28.7390,-86.0060,0.0,24.4,2 
NDBC,ioos:station:wmo:42039:1,2017-05-04T03:50:00Z,28.7390,-86.0060,0.0,24.4,2 
NDBC,ioos:station:wmo:42039:1,2017-05-04T04:50:00Z,28.7390,-86.0060,0.0,24.5,2 
NDBC,ioos:station:wmo:42039:1,2017-05-04T05:50:00Z,28.7390,-86.0060,0.0,24.5,2 
NDBC,ioos:station:wmo:42039:1,2017-05-04T06:50:00Z,28.7390,-86.0060,0.0,24.5,2 
NDBC,ioos:station:wmo:42039:1,2017-05-04T07:50:00Z,28.7390,-86.0060,0.0,24.5,2 
NDBC,ioos:station:wmo:42039:1,2017-05-04T08:50:00Z,28.7390,-86.0060,0.0,24.5,2 
NDBC,ioos:station:wmo:42039:1,2017-05-04T09:50:00Z,28.7390,-86.0060,0.0,24.5,2 
NDBC,ioos:station:wmo:42039:1,2017-05-04T10:50:00Z,28.7390,-86.0060,0.0,24.5,2 
NDBC,ioos:station:wmo:42039:1,2017-05-04T11:50:00Z,28.7390,-86.0060,0.0,24.5,2 
NDBC,ioos:station:wmo:42039:1,2017-05-04T14:50:00Z,28.7390,-86.0060,0.0,24.3,2 
NDBC,ioos:station:wmo:42039:1,2017-05-04T15:50:00Z,28.7390,-86.0060,0.0,24.2,2 
NDBC,ioos:station:wmo:42039:1,2017-05-04T16:50:00Z,28.7390,-86.0060,0.0,24.2,2 
NDBC,ioos:station:wmo:42039:1,2017-05-04T17:50:00Z,28.7390,-86.0060,0.0,24.2,2 
NDBC,ioos:station:wmo:42039:1,2017-05-04T18:50:00Z,28.7390,-86.0060,0.0,24.2,2 
NDBC,ioos:station:wmo:42039:1,2017-05-04T19:50:00Z,28.7390,-86.0060,0.0,24.2,2 
NDBC,ioos:station:wmo:42039:1,2017-05-04T20:50:00Z,28.7390,-86.0060,0.0,24.3,2 
NDBC,ioos:station:wmo:42039:1,2017-05-04T21:50:00Z,28.7390,-86.0060,0.0,24.2,2 
NDBC,ioos:station:wmo:42039:1,2017-05-04T22:50:00Z,28.7390,-86.0060,0.0,24.3,2 
NDBC,ioos:station:wmo:42039:1,2017-05-04T23:50:00Z,28.7390,-86.0060,0.0,24.2,2 
NDBC,ioos:station:wmo:42039:1,2017-05-05T01:50:00Z,28.7390,-86.0060,0.0,24.2,2 
NDBC,ioos:station:wmo:42039:1,2017-05-05T02:50:00Z,28.7390,-86.0060,0.0,24.1,2 
NDBC,ioos:station:wmo:42039:1,2017-05-05T03:50:00Z,28.7390,-86.0060,0.0,24.0,2 
NDBC,ioos:station:wmo:42039:1,2017-05-05T04:50:00Z,28.7390,-86.0060,0.0,24.0,2 
NDBC,ioos:station:wmo:42039:1,2017-05-05T05:50:00Z,28.7390,-86.0060,0.0,23.9,2 
NDBC,ioos:station:wmo:42039:1,2017-05-05T06:50:00Z,28.7390,-86.0060,0.0,23.9,2 
NDBC,ioos:station:wmo:42039:1,2017-05-05T07:50:00Z,28.7390,-86.0060,0.0,23.8,2 
NDBC,ioos:station:wmo:42039:1,2017-05-05T08:50:00Z,28.7390,-86.0060,0.0,23.7,2 
NDBC,ioos:station:wmo:42039:1,2017-05-05T09:50:00Z,28.7390,-86.0060,0.0,23.6,2 
NDBC,ioos:station:wmo:42039:1,2017-05-05T10:50:00Z,28.7390,-86.0060,0.0,23.6,2 
NDBC,ioos:station:wmo:42039:1,2017-05-05T11:50:00Z,28.7390,-86.0060,0.0,23.6,2 
NDBC,ioos:station:wmo:42039:1,2017-05-05T14:50:00Z,28.7390,-86.0060,0.0,23.7,2 
NDBC,ioos:station:wmo:42039:1,2017-05-05T16:50:00Z,28.7390,-86.0060,0.0,23.7,2 
NDBC,ioos:station:wmo:42039:1,2017-05-05T17:50:00Z,28.7390,-86.0060,0.0,23.7,2 
NDBC,ioos:station:wmo:42039:1,2017-05-05T18:50:00Z,28.7390,-86.0060,0.0,23.7,2 
NDBC,ioos:station:wmo:42039:1,2017-05-05T20:50:00Z,28.7390,-86.0060,0.0,23.6,2 
NDBC,ioos:station:wmo:42039:1,2017-05-05T22:50:00Z,28.7390,-86.0060,0.0,23.6,2 
NDBC,ioos:station:wmo:42039:1,2017-05-06T00:50:00Z,28.7390,-86.0060,0.0,23.6,2 
NDBC,ioos:station:wmo:42039:1,2017-05-06T03:50:00Z,28.7390,-86.0060,0.0,23.4,2 
NDBC,ioos:station:wmo:42039:1,2017-05-06T04:50:00Z,28.7390,-86.0060,0.0,23.4,2 
NDBC,ioos:station:wmo:42039:1,2017-05-06T05:50:00Z,28.7390,-86.0060,0.0,23.4,2 
NDBC,ioos:station:wmo:42039:1,2017-05-06T06:50:00Z,28.7390,-86.0060,0.0,23.4,2 
NDBC,ioos:station:wmo:42039:1,2017-05-06T07:50:00Z,28.7390,-86.0060,0.0,23.3,2 
NDBC,ioos:station:wmo:42039:1,2017-05-06T09:50:00Z,28.7390,-86.0060,0.0,23.3,2 
NDBC,ioos:station:wmo:42039:1,2017-05-06T10:50:00Z,28.7390,-86.0060,0.0,23.3,2 
NDBC,ioos:station:wmo:42039:1,2017-05-06T11:50:00Z,28.7390,-86.0060,0.0,23.3,2 
NDBC,ioos:station:wmo:42039:1,2017-05-06T12:50:00Z,28.7390,-86.0060,0.0,23.3,2 
NDBC,ioos:station:wmo:42039:1,2017-05-06T14:50:00Z,28.7390,-86.0060,0.0,23.4,2 
NDBC,ioos:station:wmo:42039:1,2017-05-06T16:50:00Z,28.7390,-86.0060,0.0,23.5,2 
NDBC,ioos:station:wmo:42039:1,2017-05-06T18:50:00Z,28.7390,-86.0060,0.0,23.6,2 
NDBC,ioos:station:wmo:42039:1,2017-05-06T20:50:00Z,28.7390,-86.0060,0.0,23.7,2 
NDBC,ioos:station:wmo:42039:1,2017-05-06T22:50:00Z,28.7390,-86.0060,0.0,23.7,2 
NDBC,ioos:station:wmo:42039:1,2017-05-06T23:50:00Z,28.7390,-86.0060,0.0,23.6,2 
NDBC,ioos:station:wmo:42039:1,2017-05-07T00:50:00Z,28.7390,-86.0060,0.0,23.6,2 
NDBC,ioos:station:wmo:42039:1,2017-05-07T01:50:00Z,28.7390,-86.0060,0.0,23.5,2 
NDBC,ioos:station:wmo:42039:1,2017-05-07T03:50:00Z,28.7390,-86.0060,0.0,23.5,2 
NDBC,ioos:station:wmo:42039:1,2017-05-07T05:50:00Z,28.7390,-86.0060,0.0,23.5,2 
NDBC,ioos:station:wmo:42039:1,2017-05-07T06:50:00Z,28.7390,-86.0060,0.0,23.5,2 
NDBC,ioos:station:wmo:42039:1,2017-05-07T08:50:00Z,28.7390,-86.0060,0.0,23.4,2 
NDBC,ioos:station:wmo:42039:1,2017-05-07T09:50:00Z,28.7390,-86.0060,0.0,23.4,2 
NDBC,ioos:station:wmo:42039:1,2017-05-07T10:50:00Z,28.7390,-86.0060,0.0,23.4,2 
NDBC,ioos:station:wmo:42039:1,2017-05-07T11:50:00Z,28.7390,-86.0060,0.0,23.4,2 
NDBC,ioos:station:wmo:42039:1,2017-05-07T12:50:00Z,28.7390,-86.0060,0.0,23.4,2 
NDBC,ioos:station:wmo:42039:1,2017-05-07T14:50:00Z,28.7390,-86.0060,0.0,23.4,2 
NDBC,ioos:station:wmo:42039:1,2017-05-07T15:50:00Z,28.7390,-86.0060,0.0,23.4,2 
NDBC,ioos:station:wmo:42039:1,2017-05-07T16:50:00Z,28.7390,-86.0060,0.0,23.5,2 
NDBC,ioos:station:wmo:42039:1,2017-05-07T17:50:00Z,28.7390,-86.0060,0.0,23.6,2 
NDBC,ioos:station:wmo:42039:1,2017-05-07T18:50:00Z,28.7390,-86.0060,0.0,23.7,2 
NDBC,ioos:station:wmo:42039:1,2017-05-07T19:50:00Z,28.7390,-86.0060,0.0,23.7,2 
NDBC,ioos:station:wmo:42039:1,2017-05-07T20:50:00Z,28.7390,-86.0060,0.0,23.5,2 
NDBC,ioos:station:wmo:42039:1,2017-05-07T21:50:00Z,28.7390,-86.0060,0.0,23.5,2 
NDBC,ioos:station:wmo:42039:1,2017-05-07T23:50:00Z,28.7390,-86.0060,0.0,23.4,2 
NDBC,ioos:station:wmo:42039:1,2017-05-08T00:50:00Z,28.7390,-86.0060,0.0,23.4,2 
NDBC,ioos:station:wmo:42039:1,2017-05-08T02:50:00Z,28.7390,-86.0060,0.0,23.3,2 
NDBC,ioos:station:wmo:42039:1,2017-05-08T03:50:00Z,28.7390,-86.0060,0.0,23.3,2 
NDBC,ioos:station:wmo:42039:1,2017-05-08T04:50:00Z,28.7390,-86.0060,0.0,23.3,2 
NDBC,ioos:station:wmo:42039:1,2017-05-08T05:50:00Z,28.7390,-86.0060,0.0,23.2,2 
NDBC,ioos:station:wmo:42039:1,2017-05-08T06:50:00Z,28.7390,-86.0060,0.0,23.2,2 
NDBC,ioos:station:wmo:42039:1,2017-05-08T07:50:00Z,28.7390,-86.0060,0.0,23.2,2 
NDBC,ioos:station:wmo:42039:1,2017-05-08T08:50:00Z,28.7390,-86.0060,0.0,23.2,2 
NDBC,ioos:station:wmo:42039:1,2017-05-08T10:50:00Z,28.7390,-86.0060,0.0,23.1,2 
NDBC,ioos:station:wmo:42039:1,2017-05-08T11:50:00Z,28.7390,-86.0060,0.0,23.1,2 
NDBC,ioos:station:wmo:42039:1,2017-05-08T13:50:00Z,28.7390,-86.0060,0.0,23.2,2 
NDBC,ioos:station:wmo:42039:1,2017-05-08T14:50:00Z,28.7390,-86.0060,0.0,23.3,2 
NDBC,ioos:station:wmo:42039:1,2017-05-08T15:50:00Z,28.7390,-86.0060,0.0,23.3,2 
NDBC,ioos:station:wmo:42039:1,2017-05-08T16:50:00Z,28.7390,-86.0060,0.0,23.4,2 
NDBC,ioos:station:wmo:42039:1,2017-05-08T18:50:00Z,28.7390,-86.0060,0.0,23.7,2 
NDBC,ioos:station:wmo:42039:1,2017-05-08T19:50:00Z,28.7390,-86.0060,0.0,23.9,2 
NDBC,ioos:station:wmo:42039:1,2017-05-08T20:50:00Z,28.7390,-86.0060,0.0,24.1,2 
NDBC,ioos:station:wmo:42039:1,2017-05-08T21:50:00Z,28.7390,-86.0060,0.0,24.1,2 
NDBC,ioos:station:wmo:42039:1,2017-05-08T23:50:00Z,28.7390,-86.0060,0.0,24.2,2 
NDBC,ioos:station:wmo:42039:1,2017-05-09T00:50:00Z,28.7390,-86.0060,0.0,23.9,2 
NDBC,ioos:station:wmo:42039:1,2017-05-09T01:50:00Z,28.7390,-86.0060,0.0,23.9,2 
NDBC,ioos:station:wmo:42039:1,2017-05-09T04:50:00Z,28.7390,-86.0060,0.0,23.2,2 
NDBC,ioos:station:wmo:42039:1,2017-05-09T05:50:00Z,28.7390,-86.0060,0.0,23.2,2 
NDBC,ioos:station:wmo:42039:1,2017-05-09T06:50:00Z,28.7390,-86.0060,0.0,23.2,2 
NDBC,ioos:station:wmo:42039:1,2017-05-09T08:50:00Z,28.7390,-86.0060,0.0,23.2,2 
NDBC,ioos:station:wmo:42039:1,2017-05-09T09:50:00Z,28.7390,-86.0060,0.0,23.2,2 
NDBC,ioos:station:wmo:42039:1,2017-05-09T10:50:00Z,28.7390,-86.0060,0.0,23.1,2 
NDBC,ioos:station:wmo:42039:1,2017-05-09T11:50:00Z,28.7390,-86.0060,0.0,23.1,2 
NDBC,ioos:station:wmo:42039:1,2017-05-09T12:50:00Z,28.7390,-86.0060,0.0,23.3,2 
NDBC,ioos:station:wmo:42039:1,2017-05-09T15:50:00Z,28.7390,-86.0060,0.0,23.5,2 
NDBC,ioos:station:wmo:42039:1,2017-05-09T16:50:00Z,28.7390,-86.0060,0.0,23.7,2 
NDBC,ioos:station:wmo:42039:1,2017-05-09T17:50:00Z,28.7390,-86.0060,0.0,23.8,2 
NDBC,ioos:station:wmo:42039:1,2017-05-09T18:50:00Z,28.7390,-86.0060,0.0,24.1,2 
NDBC,ioos:station:wmo:42039:1,2017-05-09T20:50:00Z,28.7390,-86.0060,0.0,24.5,2 
NDBC,ioos:station:wmo:42039:1,2017-05-09T22:50:00Z,28.7390,-86.0060,0.0,24.7,2 
NDBC,ioos:station:wmo:42039:1,2017-05-10T00:50:00Z,28.7390,-86.0060,0.0,24.1,2 
NDBC,ioos:station:wmo:42039:1,2017-05-10T02:50:00Z,28.7390,-86.0060,0.0,24.2,2 
NDBC,ioos:station:wmo:42039:1,2017-05-10T03:50:00Z,28.7390,-86.0060,0.0,24.2,2 
NDBC,ioos:station:wmo:42039:1,2017-05-10T04:50:00Z,28.7390,-86.0060,0.0,24.0,2 
NDBC,ioos:station:wmo:42039:1,2017-05-10T05:50:00Z,28.7390,-86.0060,0.0,23.8,2 
NDBC,ioos:station:wmo:42039:1,2017-05-10T06:50:00Z,28.7390,-86.0060,0.0,23.8,2 
NDBC,ioos:station:wmo:42039:1,2017-05-10T07:50:00Z,28.7390,-86.0060,0.0,23.8,2 
NDBC,ioos:station:wmo:42039:1,2017-05-10T09:50:00Z,28.7390,-86.0060,0.0,23.7,2 
NDBC,ioos:station:wmo:42039:1,2017-05-10T10:50:00Z,28.7390,-86.0060,0.0,23.6,2 
NDBC,ioos:station:wmo:42039:1,2017-05-10T11:50:00Z,28.7390,-86.0060,0.0,23.5,2 
NDBC,ioos:station:wmo:42039:1,2017-05-10T12:50:00Z,28.7390,-86.0060,0.0,23.6,2 
NDBC,ioos:station:wmo:42039:1,2017-05-10T14:50:00Z,28.7390,-86.0060,0.0,24.7,2 
NDBC,ioos:station:wmo:42039:1,2017-05-10T16:50:00Z,28.7390,-86.0060,0.0,25.4,2 
NDBC,ioos:station:wmo:42039:1,2017-05-10T19:50:00Z,28.7390,-86.0060,0.0,25.1,2 
NDBC,ioos:station:wmo:42039:1,2017-05-10T20:50:00Z,28.7390,-86.0060,0.0,25.3,2 
NDBC,ioos:station:wmo:42039:1,2017-05-10T21:50:00Z,28.7390,-86.0060,0.0,25.2,2 
NDBC,ioos:station:wmo:42039:1,2017-05-10T22:50:00Z,28.7390,-86.0060,0.0,25.4,2 
NDBC,ioos:station:wmo:42039:1,2017-05-10T23:50:00Z,28.7390,-86.0060,0.0,25.1,2 
NDBC,ioos:station:wmo:42039:1,2017-05-11T00:50:00Z,28.7390,-86.0060,0.0,24.8,2 
NDBC,ioos:station:wmo:42039:1,2017-05-11T01:50:00Z,28.7390,-86.0060,0.0,24.6,2 
NDBC,ioos:station:wmo:42039:1,2017-05-11T02:50:00Z,28.7390,-86.0060,0.0,24.7,2 
NDBC,ioos:station:wmo:42039:1,2017-05-11T03:50:00Z,28.7390,-86.0060,0.0,24.5,2 
NDBC,ioos:station:wmo:42039:1,2017-05-11T04:50:00Z,28.7390,-86.0060,0.0,24.2,2 
NDBC,ioos:station:wmo:42039:1,2017-05-11T05:50:00Z,28.7390,-86.0060,0.0,24.0,2 
NDBC,ioos:station:wmo:42039:1,2017-05-11T07:50:00Z,28.7390,-86.0060,0.0,24.0,2 
NDBC,ioos:station:wmo:42039:1,2017-05-11T09:50:00Z,28.7390,-86.0060,0.0,24.0,2 
NDBC,ioos:station:wmo:42039:1,2017-05-11T11:50:00Z,28.7390,-86.0060,0.0,24.0,2 
NDBC,ioos:station:wmo:42039:1,2017-05-11T12:50:00Z,28.7390,-86.0060,0.0,24.0,2 
NDBC,ioos:station:wmo:42039:1,2017-05-11T16:50:00Z,28.7390,-86.0060,0.0,25.4,2 
NDBC,ioos:station:wmo:42039:1,2017-05-11T17:50:00Z,28.7390,-86.0060,0.0,25.4,2 
NDBC,ioos:station:wmo:42039:1,2017-05-11T18:50:00Z,28.7390,-86.0060,0.0,25.3,2 
NDBC,ioos:station:wmo:42039:1,2017-05-11T19:50:00Z,28.7390,-86.0060,0.0,25.5,2 
NDBC,ioos:station:wmo:42039:1,2017-05-11T20:50:00Z,28.7390,-86.0060,0.0,25.6,2 
NDBC,ioos:station:wmo:42039:1,2017-05-11T21:50:00Z,28.7390,-86.0060,0.0,25.5,2 
NDBC,ioos:station:wmo:42039:1,2017-05-11T22:50:00Z,28.7390,-86.0060,0.0,25.6,2 
NDBC,ioos:station:wmo:42039:1,2017-05-11T23:50:00Z,28.7390,-86.0060,0.0,25.6,2 
NDBC,ioos:station:wmo:42039:1,2017-05-12T00:50:00Z,28.7390,-86.0060,0.0,25.3,2 
NDBC,ioos:station:wmo:42039:1,2017-05-12T03:50:00Z,28.7390,-86.0060,0.0,24.9,2 
NDBC,ioos:station:wmo:42039:1,2017-05-12T04:50:00Z,28.7390,-86.0060,0.0,24.4,2 
NDBC,ioos:station:wmo:42039:1,2017-05-12T05:50:00Z,28.7390,-86.0060,0.0,24.1,2 
NDBC,ioos:station:wmo:42039:1,2017-05-12T06:50:00Z,28.7390,-86.0060,0.0,24.2,2 
NDBC,ioos:station:wmo:42039:1,2017-05-12T07:50:00Z,28.7390,-86.0060,0.0,24.1,2 
NDBC,ioos:station:wmo:42039:1,2017-05-12T09:50:00Z,28.7390,-86.0060,0.0,24.1,2 
NDBC,ioos:station:wmo:42039:1,2017-05-12T10:50:00Z,28.7390,-86.0060,0.0,24.1,2 
NDBC,ioos:station:wmo:42039:1,2017-05-12T11:50:00Z,28.7390,-86.0060,0.0,24.1,2 
NDBC,ioos:station:wmo:42039:1,2017-05-12T12:50:00Z,28.7390,-86.0060,0.0,24.2,2 
NDBC,ioos:station:wmo:42039:1,2017-05-12T14:50:00Z,28.7390,-86.0060,0.0,24.2,2 
NDBC,ioos:station:wmo:42039:1,2017-05-12T15:50:00Z,28.7390,-86.0060,0.0,24.3,2 
NDBC,ioos:station:wmo:42039:1,2017-05-12T16:50:00Z,28.7390,-86.0060,0.0,24.3,2 
NDBC,ioos:station:wmo:42039:1,2017-05-12T17:50:00Z,28.7390,-86.0060,0.0,24.4,2 
NDBC,ioos:station:wmo:42039:1,2017-05-12T18:50:00Z,28.7390,-86.0060,0.0,24.5,2 
NDBC,ioos:station:wmo:42039:1,2017-05-12T20:50:00Z,28.7390,-86.0060,0.0,24.7,2 
NDBC,ioos:station:wmo:42039:1,2017-05-12T21:50:00Z,28.7390,-86.0060,0.0,24.6,2 
NDBC,ioos:station:wmo:42039:1,2017-05-14T14:50:00Z,28.7390,-86.0060,0.0,24.0,2 
NDBC,ioos:station:wmo:42039:1,2017-05-14T15:50:00Z,28.7390,-86.0060,0.0,24.1,2 
NDBC,ioos:station:wmo:42039:1,2017-05-14T16:50:00Z,28.7390,-86.0060,0.0,24.2,2 
NDBC,ioos:station:wmo:42039:1,2017-05-14T17:50:00Z,28.7390,-86.0060,0.0,24.3,2 
NDBC,ioos:station:wmo:42039:1,2017-05-14T19:50:00Z,28.7390,-86.0060,0.0,24.5,2 
NDBC,ioos:station:wmo:42039:1,2017-05-14T20:50:00Z,28.7390,-86.0060,0.0,24.6,2 
NDBC,ioos:station:wmo:42039:1,2017-05-14T22:50:00Z,28.7390,-86.0060,0.0,24.7,2 
NDBC,ioos:station:wmo:42039:1,2017-05-15T00:50:00Z,28.7390,-86.0060,0.0,24.6,2 
NDBC,ioos:station:wmo:42039:1,2017-05-15T01:50:00Z,28.7390,-86.0060,0.0,24.5,2 
NDBC,ioos:station:wmo:42039:1,2017-05-15T03:50:00Z,28.7390,-86.0060,0.0,24.4,2 
NDBC,ioos:station:wmo:42039:1,2017-05-15T04:50:00Z,28.7390,-86.0060,0.0,24.3,2 
NDBC,ioos:station:wmo:42039:1,2017-05-15T05:50:00Z,28.7390,-86.0060,0.0,24.4,2 
NDBC,ioos:station:wmo:42039:1,2017-05-15T06:50:00Z,28.7390,-86.0060,0.0,24.3,2 
NDBC,ioos:station:wmo:42039:1,2017-05-15T08:50:00Z,28.7390,-86.0060,0.0,24.3,2 
NDBC,ioos:station:wmo:42039:1,2017-05-15T09:50:00Z,28.7390,-86.0060,0.0,24.3,2 
NDBC,ioos:station:wmo:42039:1,2017-05-15T10:50:00Z,28.7390,-86.0060,0.0,24.3,2 
NDBC,ioos:station:wmo:42039:1,2017-05-15T11:50:00Z,28.7390,-86.0060,0.0,24.3,2 
NDBC,ioos:station:wmo:42039:1,2017-05-15T12:50:00Z,28.7390,-86.0060,0.0,24.3,2 
NDBC,ioos:station:wmo:42039:1,2017-05-15T14:50:00Z,28.7390,-86.0060,0.0,24.3,2 
NDBC,ioos:station:wmo:42039:1,2017-05-15T15:50:00Z,28.7390,-86.0060,0.0,24.4,2 
NDBC,ioos:station:wmo:42039:1,2017-05-15T16:50:00Z,28.7390,-86.0060,0.0,24.5,2 
NDBC,ioos:station:wmo:42039:1,2017-05-15T17:50:00Z,28.7390,-86.0060,0.0,24.6,2 
NDBC,ioos:station:wmo:42039:1,2017-05-15T19:50:00Z,28.7390,-86.0060,0.0,24.8,2 
NDBC,ioos:station:wmo:42039:1,2017-05-15T20:50:00Z,28.7390,-86.0060,0.0,25.1,2 
NDBC,ioos:station:wmo:42039:1,2017-05-15T21:50:00Z,28.7390,-86.0060,0.0,25.3,2 
NDBC,ioos:station:wmo:42039:1,2017-05-15T22:50:00Z,28.7390,-86.0060,0.0,25.3,2 
NDBC,ioos:station:wmo:42039:1,2017-05-15T23:50:00Z,28.7390,-86.0060,0.0,25.2,2 
NDBC,ioos:station:wmo:42039:1,2017-05-16T00:50:00Z,28.7390,-86.0060,0.0,25.1,2 
NDBC,ioos:station:wmo:42039:1,2017-05-16T01:50:00Z,28.7390,-86.0060,0.0,24.9,2 
NDBC,ioos:station:wmo:42039:1,2017-05-16T02:50:00Z,28.7390,-86.0060,0.0,24.9,2 
NDBC,ioos:station:wmo:42039:1,2017-05-16T05:50:00Z,28.7390,-86.0060,0.0,24.7,2 
NDBC,ioos:station:wmo:42039:1,2017-05-16T06:50:00Z,28.7390,-86.0060,0.0,24.7,2 
NDBC,ioos:station:wmo:42039:1,2017-05-16T11:50:00Z,28.7390,-86.0060,0.0,24.5,2 
NDBC,ioos:station:wmo:42039:1,2017-05-16T12:50:00Z,28.7390,-86.0060,0.0,24.5,2 
NDBC,ioos:station:wmo:42039:1,2017-05-16T13:50:00Z,28.7390,-86.0060,0.0,24.5,2 
NDBC,ioos:station:wmo:42039:1,2017-05-16T14:50:00Z,28.7390,-86.0060,0.0,24.7,2 
NDBC,ioos:station:wmo:42039:1,2017-05-16T16:50:00Z,28.7390,-86.0060,0.0,25.0,2 
NDBC,ioos:station:wmo:42039:1,2017-05-16T17:50:00Z,28.7390,-86.0060,0.0,25.2,2 
NDBC,ioos:station:wmo:42039:1,2017-05-16T19:50:00Z,28.7390,-86.0060,0.0,25.1,2 
NDBC,ioos:station:wmo:42039:1,2017-05-16T20:50:00Z,28.7390,-86.0060,0.0,25.1,2 
NDBC,ioos:station:wmo:42039:1,2017-05-16T21:50:00Z,28.7390,-86.0060,0.0,25.0,2 
NDBC,ioos:station:wmo:42039:1,2017-05-16T22:50:00Z,28.7390,-86.0060,0.0,24.9,2 
NDBC,ioos:station:wmo:42039:1,2017-05-16T23:50:00Z,28.7390,-86.0060,0.0,24.8,2 
NDBC,ioos:station:wmo:42039:1,2017-05-17T00:50:00Z,28.7390,-86.0060,0.0,24.8,2 
NDBC,ioos:station:wmo:42039:1,2017-05-17T02:50:00Z,28.7390,-86.0060,0.0,24.9,2 
NDBC,ioos:station:wmo:42039:1,2017-05-18T13:50:00Z,28.7390,-86.0060,0.0,25.0,2 
NDBC,ioos:station:wmo:42039:1,2017-05-18T14:50:00Z,28.7390,-86.0060,0.0,25.0,2 
NDBC,ioos:station:wmo:42039:1,2017-05-18T18:50:00Z,28.7390,-86.0060,0.0,25.3,2 
NDBC,ioos:station:wmo:42039:1,2017-05-18T20:50:00Z,28.7390,-86.0060,0.0,25.3,2 
NDBC,ioos:station:wmo:42039:1,2017-05-18T21:50:00Z,28.7390,-86.0060,0.0,25.3,2 
NDBC,ioos:station:wmo:42039:1,2017-05-18T22:50:00Z,28.7390,-86.0060,0.0,25.3,2 
NDBC,ioos:station:wmo:42039:1,2017-05-18T23:50:00Z,28.7390,-86.0060,0.0,25.2,2 
NDBC,ioos:station:wmo:42039:1,2017-05-19T00:50:00Z,28.7390,-86.0060,0.0,25.2,2 
NDBC,ioos:station:wmo:42039:1,2017-05-19T01:50:00Z,28.7390,-86.0060,0.0,25.2,2 
NDBC,ioos:station:wmo:42039:1,2017-05-19T02:50:00Z,28.7390,-86.0060,0.0,25.1,2 
NDBC,ioos:station:wmo:42039:1,2017-05-19T03:50:00Z,28.7390,-86.0060,0.0,25.1,2 
NDBC,ioos:station:wmo:42039:1,2017-05-19T04:50:00Z,28.7390,-86.0060,0.0,25.1,2 
NDBC,ioos:station:wmo:42039:1,2017-05-19T05:50:00Z,28.7390,-86.0060,0.0,25.1,2 
NDBC,ioos:station:wmo:42039:1,2017-05-19T06:50:00Z,28.7390,-86.0060,0.0,25.1,2 
NDBC,ioos:station:wmo:42039:1,2017-05-19T07:50:00Z,28.7390,-86.0060,0.0,25.1,2 
NDBC,ioos:station:wmo:42039:1,2017-05-19T08:50:00Z,28.7390,-86.0060,0.0,25.1,2 
NDBC,ioos:station:wmo:42039:1,2017-05-19T09:50:00Z,28.7390,-86.0060,0.0,25.1,2 
NDBC,ioos:station:wmo:42039:1,2017-05-19T10:50:00Z,28.7390,-86.0060,0.0,25.1,2 
NDBC,ioos:station:wmo:42039:1,2017-05-19T11:50:00Z,28.7390,-86.0060,0.0,25.1,2 
NDBC,ioos:station:wmo:42039:1,2017-05-19T12:50:00Z,28.7390,-86.0060,0.0,25.0,2 
NDBC,ioos:station:wmo:42039:1,2017-05-19T13:50:00Z,28.7390,-86.0060,0.0,25.1,2 
NDBC,ioos:station:wmo:42039:1,2017-05-19T14:50:00Z,28.7390,-86.0060,0.0,25.1,2 
NDBC,ioos:station:wmo:42039:1,2017-05-19T15:50:00Z,28.7390,-86.0060,0.0,25.2,2 
NDBC,ioos:station:wmo:42039:1,2017-05-19T16:50:00Z,28.7390,-86.0060,0.0,25.2,2 
NDBC,ioos:station:wmo:42039:1,2017-05-19T17:50:00Z,28.7390,-86.0060,0.0,25.3,2 
NDBC,ioos:station:wmo:42039:1,2017-05-19T18:50:00Z,28.7390,-86.0060,0.0,25.3,2 
NDBC,ioos:station:wmo:42039:1,2017-05-19T19:50:00Z,28.7390,-86.0060,0.0,25.3,2 
NDBC,ioos:station:wmo:42039:1,2017-05-19T20:50:00Z,28.7390,-86.0060,0.0,25.3,2 
NDBC,ioos:station:wmo:42039:1,2017-05-19T21:50:00Z,28.7390,-86.0060,0.0,25.3,2 
NDBC,ioos:station:wmo:42039:1,2017-05-19T22:50:00Z,28.7390,-86.0060,0.0,25.3,2 
NDBC,ioos:station:wmo:42039:1,2017-05-19T23:50:00Z,28.7390,-86.0060,0.0,25.3,2 
NDBC,ioos:station:wmo:42039:1,2017-05-20T00:50:00Z,28.7390,-86.0060,0.0,25.3,2 